Year,Month,Day,Hour,Minute,Value (Times are PST for windspeed in km/hr)
2016,07,30,00,00,4.80
2016,07,30,00,01,5.60
2016,07,30,00,02,7.50
2016,07,30,00,03,7.90
2016,07,30,00,04,6.10
2016,07,30,00,05,5.00
2016,07,30,00,06,8.80
2016,07,30,00,07,9.30
2016,07,30,00,08,8.10
2016,07,30,00,09,6.70
2016,07,30,00,10,6.60
2016,07,30,00,11,6.00
2016,07,30,00,12,10.60
2016,07,30,00,13,7.50
2016,07,30,00,14,11.60
2016,07,30,00,15,9.40
2016,07,30,00,16,8.90
2016,07,30,00,17,8.50
2016,07,30,00,18,6.70
2016,07,30,00,19,9.70
2016,07,30,00,20,6.70
2016,07,30,00,21,5.40
2016,07,30,00,22,11.60
2016,07,30,00,23,8.20
2016,07,30,00,24,17.20
2016,07,30,00,25,8.70
2016,07,30,00,26,6.50
2016,07,30,00,27,2.70
2016,07,30,00,28,6.30
2016,07,30,00,29,5.80
2016,07,30,00,30,1.60
2016,07,30,00,31,3.00
2016,07,30,00,32,7.30
2016,07,30,00,33,6.40
2016,07,30,00,34,3.30
2016,07,30,00,35,6.30
2016,07,30,00,36,11.00
2016,07,30,00,37,9.20
2016,07,30,00,38,12.60
2016,07,30,00,39,7.30
2016,07,30,00,40,13.20
2016,07,30,00,41,15.30
2016,07,30,00,42,15.30
2016,07,30,00,43,8.20
2016,07,30,00,44,12.60
2016,07,30,00,45,11.00
2016,07,30,00,46,13.20
2016,07,30,00,47,19.10
2016,07,30,00,48,8.30
2016,07,30,00,49,8.00
2016,07,30,00,50,13.40
2016,07,30,00,51,14.30
2016,07,30,00,52,14.20
2016,07,30,00,53,11.50
2016,07,30,00,54,12.70
2016,07,30,00,55,12.00
2016,07,30,00,56,7.10
2016,07,30,00,57,7.20
2016,07,30,00,58,7.90
2016,07,30,00,59,10.20
2016,07,30,01,00,7.50
2016,07,30,01,01,5.70
2016,07,30,01,02,7.40
2016,07,30,01,03,14.00
2016,07,30,01,04,10.40
2016,07,30,01,05,12.20
2016,07,30,01,06,10.30
2016,07,30,01,07,15.00
2016,07,30,01,08,6.70
2016,07,30,01,09,10.70
2016,07,30,01,10,9.20
2016,07,30,01,11,15.90
2016,07,30,01,12,12.70
2016,07,30,01,13,15.90
2016,07,30,01,14,6.90
2016,07,30,01,15,10.30
2016,07,30,01,16,13.70
2016,07,30,01,17,13.60
2016,07,30,01,18,11.40
2016,07,30,01,19,12.90
2016,07,30,01,20,15.60
2016,07,30,01,21,9.90
2016,07,30,01,22,8.80
2016,07,30,01,23,13.00
2016,07,30,01,24,13.30
2016,07,30,01,25,15.20
2016,07,30,01,26,12.00
2016,07,30,01,27,10.00
2016,07,30,01,28,16.90
2016,07,30,01,29,15.10
2016,07,30,01,30,13.50
2016,07,30,01,31,14.50
2016,07,30,01,32,16.40
2016,07,30,01,33,11.90
2016,07,30,01,34,8.20
2016,07,30,01,35,9.50
2016,07,30,01,36,11.10
2016,07,30,01,37,11.60
2016,07,30,01,38,8.60
2016,07,30,01,39,7.20
2016,07,30,01,40,9.20
2016,07,30,01,41,15.40
2016,07,30,01,42,10.70
2016,07,30,01,43,13.80
2016,07,30,01,44,12.80
2016,07,30,01,45,13.80
2016,07,30,01,46,16.00
2016,07,30,01,47,14.20
2016,07,30,01,48,9.80
2016,07,30,01,49,18.00
2016,07,30,01,50,15.80
2016,07,30,01,51,14.40
2016,07,30,01,52,12.60
2016,07,30,01,53,11.60
2016,07,30,01,54,10.90
2016,07,30,01,55,7.50
2016,07,30,01,56,4.80
2016,07,30,01,57,9.30
2016,07,30,01,58,15.20
2016,07,30,01,59,8.90
2016,07,30,02,00,6.70
2016,07,30,02,01,10.90
2016,07,30,02,02,9.80
2016,07,30,02,03,5.60
2016,07,30,02,04,10.60
2016,07,30,02,05,10.30
2016,07,30,02,06,10.50
2016,07,30,02,07,6.30
2016,07,30,02,08,8.90
2016,07,30,02,09,8.30
2016,07,30,02,10,5.80
2016,07,30,02,11,4.00
2016,07,30,02,12,6.40
2016,07,30,02,13,6.10
2016,07,30,02,14,7.90
2016,07,30,02,15,11.60
2016,07,30,02,16,7.10
2016,07,30,02,17,5.80
2016,07,30,02,18,6.30
2016,07,30,02,19,10.30
2016,07,30,02,20,14.70
2016,07,30,02,21,6.30
2016,07,30,02,22,8.50
2016,07,30,02,23,14.40
2016,07,30,02,24,8.30
2016,07,30,02,25,9.50
2016,07,30,02,26,10.90
2016,07,30,02,27,12.90
2016,07,30,02,28,12.60
2016,07,30,02,29,13.10
2016,07,30,02,30,10.90
2016,07,30,02,31,15.30
2016,07,30,02,32,16.00
2016,07,30,02,33,13.80
2016,07,30,02,34,16.90
2016,07,30,02,35,19.30
2016,07,30,02,36,17.00
2016,07,30,02,37,11.00
2016,07,30,02,38,9.40
2016,07,30,02,39,10.80
2016,07,30,02,40,14.50
2016,07,30,02,41,8.00
2016,07,30,02,42,10.90
2016,07,30,02,43,14.60
2016,07,30,02,44,8.50
2016,07,30,02,45,17.00
2016,07,30,02,46,15.90
2016,07,30,02,47,11.50
2016,07,30,02,48,10.50
2016,07,30,02,49,10.00
2016,07,30,02,50,8.80
2016,07,30,02,51,14.00
2016,07,30,02,52,9.70
2016,07,30,02,53,9.80
2016,07,30,02,54,10.40
2016,07,30,02,55,5.40
2016,07,30,02,56,7.80
2016,07,30,02,57,10.60
2016,07,30,02,58,11.50
2016,07,30,02,59,7.30
2016,07,30,03,00,8.30
2016,07,30,03,01,6.90
2016,07,30,03,02,7.60
2016,07,30,03,03,6.40
2016,07,30,03,04,12.60
2016,07,30,03,05,5.40
2016,07,30,03,06,6.00
2016,07,30,03,07,6.70
2016,07,30,03,08,7.60
2016,07,30,03,09,6.60
2016,07,30,03,10,2.80
2016,07,30,03,11,5.80
2016,07,30,03,12,6.40
2016,07,30,03,13,8.30
2016,07,30,03,14,9.70
2016,07,30,03,15,8.70
2016,07,30,03,16,6.80
2016,07,30,03,17,3.80
2016,07,30,03,18,5.80
2016,07,30,03,19,12.30
2016,07,30,03,20,8.90
2016,07,30,03,21,7.50
2016,07,30,03,22,8.90
2016,07,30,03,23,10.10
2016,07,30,03,24,8.60
2016,07,30,03,25,7.70
2016,07,30,03,26,9.90
2016,07,30,03,27,12.20
2016,07,30,03,28,11.60
2016,07,30,03,29,8.40
2016,07,30,03,30,6.20
2016,07,30,03,31,8.90
2016,07,30,03,32,13.50
2016,07,30,03,33,13.10
2016,07,30,03,34,9.80
2016,07,30,03,35,14.50
2016,07,30,03,36,13.70
2016,07,30,03,37,10.50
2016,07,30,03,38,9.30
2016,07,30,03,39,14.10
2016,07,30,03,40,17.50
2016,07,30,03,41,15.90
2016,07,30,03,42,13.20
2016,07,30,03,43,12.80
2016,07,30,03,44,14.80
2016,07,30,03,45,15.60
2016,07,30,03,46,12.80
2016,07,30,03,47,14.50
2016,07,30,03,48,16.00
2016,07,30,03,49,11.70
2016,07,30,03,50,7.80
2016,07,30,03,51,9.80
2016,07,30,03,52,11.80
2016,07,30,03,53,6.10
2016,07,30,03,54,11.50
2016,07,30,03,55,8.80
2016,07,30,03,56,10.10
2016,07,30,03,57,11.00
2016,07,30,03,58,7.70
2016,07,30,03,59,8.00
2016,07,30,04,00,8.50
2016,07,30,04,01,10.90
2016,07,30,04,02,9.90
2016,07,30,04,03,8.70
2016,07,30,04,04,8.10
2016,07,30,04,05,8.80
2016,07,30,04,06,7.20
2016,07,30,04,07,6.10
2016,07,30,04,08,6.80
2016,07,30,04,09,4.50
2016,07,30,04,10,6.90
2016,07,30,04,11,8.10
2016,07,30,04,12,8.50
2016,07,30,04,13,5.80
2016,07,30,04,14,11.00
2016,07,30,04,15,11.00
2016,07,30,04,16,9.20
2016,07,30,04,17,9.70
2016,07,30,04,18,6.30
2016,07,30,04,19,6.40
2016,07,30,04,20,5.10
2016,07,30,04,21,4.80
2016,07,30,04,22,5.10
2016,07,30,04,23,5.60
2016,07,30,04,24,7.10
2016,07,30,04,25,6.40
2016,07,30,04,26,7.60
2016,07,30,04,27,5.50
2016,07,30,04,28,2.70
2016,07,30,04,29,1.00
2016,07,30,04,30,3.60
2016,07,30,04,31,3.20
2016,07,30,04,32,5.50
2016,07,30,04,33,2.90
2016,07,30,04,34,3.50
2016,07,30,04,35,2.90
2016,07,30,04,36,7.40
2016,07,30,04,37,7.80
2016,07,30,04,38,3.50
2016,07,30,04,39,8.10
2016,07,30,04,40,6.80
2016,07,30,04,41,9.00
2016,07,30,04,42,4.90
2016,07,30,04,43,3.90
2016,07,30,04,44,5.60
2016,07,30,04,45,3.40
2016,07,30,04,46,4.50
2016,07,30,04,47,0.80
2016,07,30,04,48,8.50
2016,07,30,04,49,9.80
2016,07,30,04,50,8.90
2016,07,30,04,51,6.30
2016,07,30,04,52,6.10
2016,07,30,04,53,7.00
2016,07,30,04,54,8.50
2016,07,30,04,55,10.20
2016,07,30,04,56,6.70
2016,07,30,04,57,8.80
2016,07,30,04,58,9.20
2016,07,30,04,59,8.60
2016,07,30,05,00,14.10
2016,07,30,05,01,10.60
2016,07,30,05,02,9.10
2016,07,30,05,03,6.50
2016,07,30,05,04,9.40
2016,07,30,05,05,10.60
2016,07,30,05,06,5.50
2016,07,30,05,07,10.10
2016,07,30,05,08,7.80
2016,07,30,05,09,8.90
2016,07,30,05,10,9.20
2016,07,30,05,11,7.70
2016,07,30,05,12,7.90
2016,07,30,05,13,8.90
2016,07,30,05,14,6.50
2016,07,30,05,15,6.00
2016,07,30,05,16,3.00
2016,07,30,05,17,5.60
2016,07,30,05,18,4.30
2016,07,30,05,19,5.50
2016,07,30,05,20,4.20
2016,07,30,05,21,5.10
2016,07,30,05,22,3.50
2016,07,30,05,23,4.40
2016,07,30,05,24,3.50
2016,07,30,05,25,3.00
2016,07,30,05,26,1.40
2016,07,30,05,27,1.00
2016,07,30,05,28,3.00
2016,07,30,05,29,2.10
2016,07,30,05,30,1.00
2016,07,30,05,31,2.00
2016,07,30,05,32,2.60
2016,07,30,05,33,0.90
2016,07,30,05,34,0.00
2016,07,30,05,35,0.00
2016,07,30,05,36,2.10
2016,07,30,05,37,0.50
2016,07,30,05,38,0.00
2016,07,30,05,39,0.00
2016,07,30,05,40,0.90
2016,07,30,05,41,0.40
2016,07,30,05,42,0.10
2016,07,30,05,43,0.00
2016,07,30,05,44,0.70
2016,07,30,05,45,3.20
2016,07,30,05,46,2.10
2016,07,30,05,47,0.40
2016,07,30,05,48,1.30
2016,07,30,05,49,2.70
2016,07,30,05,50,2.40
2016,07,30,05,51,3.40
2016,07,30,05,52,6.20
2016,07,30,05,53,6.30
2016,07,30,05,54,4.50
2016,07,30,05,55,4.50
2016,07,30,05,56,5.90
2016,07,30,05,57,8.10
2016,07,30,05,58,3.60
2016,07,30,05,59,8.60
2016,07,30,06,00,7.10
2016,07,30,06,01,8.20
2016,07,30,06,02,7.90
2016,07,30,06,03,4.40
2016,07,30,06,04,2.90
2016,07,30,06,05,4.50
2016,07,30,06,06,4.80
2016,07,30,06,07,8.10
2016,07,30,06,08,3.40
2016,07,30,06,09,1.80
2016,07,30,06,10,5.30
2016,07,30,06,11,7.50
2016,07,30,06,12,5.80
2016,07,30,06,13,1.30
2016,07,30,06,14,1.80
2016,07,30,06,15,6.20
2016,07,30,06,16,8.90
2016,07,30,06,17,7.00
2016,07,30,06,18,11.00
2016,07,30,06,19,11.00
2016,07,30,06,20,9.60
2016,07,30,06,21,9.10
2016,07,30,06,22,6.60
2016,07,30,06,23,14.40
2016,07,30,06,24,13.10
2016,07,30,06,25,11.30
2016,07,30,06,26,11.00
2016,07,30,06,27,10.30
2016,07,30,06,28,11.30
2016,07,30,06,29,10.00
2016,07,30,06,30,9.80
2016,07,30,06,31,7.90
2016,07,30,06,32,6.40
2016,07,30,06,33,4.40
2016,07,30,06,34,7.30
2016,07,30,06,35,12.30
2016,07,30,06,36,10.00
2016,07,30,06,37,5.70
2016,07,30,06,38,9.50
2016,07,30,06,39,9.00
2016,07,30,06,40,10.90
2016,07,30,06,41,10.10
2016,07,30,06,42,9.50
2016,07,30,06,43,8.20
2016,07,30,06,44,8.00
2016,07,30,06,45,13.70
2016,07,30,06,46,12.50
2016,07,30,06,47,13.10
2016,07,30,06,48,13.00
2016,07,30,06,49,8.10
2016,07,30,06,50,10.20
2016,07,30,06,51,10.70
2016,07,30,06,52,11.10
2016,07,30,06,53,8.80
2016,07,30,06,54,12.20
2016,07,30,06,55,13.90
2016,07,30,06,56,14.70
2016,07,30,06,57,12.50
2016,07,30,06,58,5.90
2016,07,30,06,59,11.60
2016,07,30,07,00,11.30
2016,07,30,07,01,7.20
2016,07,30,07,02,10.70
2016,07,30,07,03,7.50
2016,07,30,07,04,9.20
2016,07,30,07,05,10.20
2016,07,30,07,06,12.50
2016,07,30,07,07,12.80
2016,07,30,07,08,8.60
2016,07,30,07,09,9.70
2016,07,30,07,10,8.20
2016,07,30,07,11,6.40
2016,07,30,07,12,8.80
2016,07,30,07,13,8.40
2016,07,30,07,14,6.00
2016,07,30,07,15,8.90
2016,07,30,07,16,8.60
2016,07,30,07,17,10.90
2016,07,30,07,18,7.90
2016,07,30,07,19,7.10
2016,07,30,07,20,7.60
2016,07,30,07,21,6.30
2016,07,30,07,22,5.60
2016,07,30,07,23,6.60
2016,07,30,07,24,4.30
2016,07,30,07,25,7.70
2016,07,30,07,26,11.40
2016,07,30,07,27,12.80
2016,07,30,07,28,10.30
2016,07,30,07,29,6.60
2016,07,30,07,30,2.60
2016,07,30,07,31,9.30
2016,07,30,07,32,7.10
2016,07,30,07,33,4.50
2016,07,30,07,34,12.70
2016,07,30,07,35,9.10
2016,07,30,07,36,7.80
2016,07,30,07,37,9.80
2016,07,30,07,38,12.00
2016,07,30,07,39,11.60
2016,07,30,07,40,7.90
2016,07,30,07,41,7.10
2016,07,30,07,42,13.80
2016,07,30,07,43,11.10
2016,07,30,07,44,11.70
2016,07,30,07,45,9.50
2016,07,30,07,46,16.20
2016,07,30,07,47,13.10
2016,07,30,07,48,14.20
2016,07,30,07,49,13.80
2016,07,30,07,50,11.70
2016,07,30,07,51,6.30
2016,07,30,07,52,8.20
2016,07,30,07,53,9.20
2016,07,30,07,54,15.10
2016,07,30,07,55,14.40
2016,07,30,07,56,15.70
2016,07,30,07,57,12.00
2016,07,30,07,58,13.90
2016,07,30,07,59,16.70
2016,07,30,08,00,17.50
2016,07,30,08,01,14.40
2016,07,30,08,02,10.00
2016,07,30,08,03,11.80
2016,07,30,08,04,17.10
2016,07,30,08,05,10.10
2016,07,30,08,06,17.00
2016,07,30,08,07,14.80
2016,07,30,08,08,13.80
2016,07,30,08,09,17.00
2016,07,30,08,10,13.10
2016,07,30,08,11,13.10
2016,07,30,08,12,18.70
2016,07,30,08,13,20.10
2016,07,30,08,14,12.30
2016,07,30,08,15,14.80
2016,07,30,08,16,14.10
2016,07,30,08,17,16.50
2016,07,30,08,18,13.70
2016,07,30,08,19,13.20
2016,07,30,08,20,14.20
2016,07,30,08,21,13.20
2016,07,30,08,22,9.20
2016,07,30,08,23,18.00
2016,07,30,08,24,21.00
2016,07,30,08,25,16.00
2016,07,30,08,26,17.80
2016,07,30,08,27,19.60
2016,07,30,08,28,22.00
2016,07,30,08,29,17.60
2016,07,30,08,30,21.50
2016,07,30,08,31,23.40
2016,07,30,08,32,23.30
2016,07,30,08,33,17.30
2016,07,30,08,34,19.40
2016,07,30,08,35,19.60
2016,07,30,08,36,18.10
2016,07,30,08,37,13.90
2016,07,30,08,38,16.90
2016,07,30,08,39,14.90
2016,07,30,08,40,19.30
2016,07,30,08,41,19.70
2016,07,30,08,42,14.50
2016,07,30,08,43,14.40
2016,07,30,08,44,17.80
2016,07,30,08,45,20.20
2016,07,30,08,46,15.70
2016,07,30,08,47,17.50
2016,07,30,08,48,15.70
2016,07,30,08,49,15.40
2016,07,30,08,50,20.10
2016,07,30,08,51,24.30
2016,07,30,08,52,15.10
2016,07,30,08,53,18.70
2016,07,30,08,54,22.10
2016,07,30,08,55,15.30
2016,07,30,08,56,16.30
2016,07,30,08,57,20.60
2016,07,30,08,58,20.00
2016,07,30,08,59,22.60
2016,07,30,09,00,23.10
2016,07,30,09,01,22.40
2016,07,30,09,02,18.80
2016,07,30,09,03,17.70
2016,07,30,09,04,15.80
2016,07,30,09,05,16.60
2016,07,30,09,06,12.30
2016,07,30,09,07,21.40
2016,07,30,09,08,20.30
2016,07,30,09,09,17.90
2016,07,30,09,10,17.80
2016,07,30,09,11,16.30
2016,07,30,09,12,24.60
2016,07,30,09,13,13.80
2016,07,30,09,14,14.20
2016,07,30,09,15,18.80
2016,07,30,09,16,14.60
2016,07,30,09,17,20.80
2016,07,30,09,18,13.60
2016,07,30,09,19,15.00
2016,07,30,09,20,20.40
2016,07,30,09,21,22.30
2016,07,30,09,22,23.30
2016,07,30,09,23,20.20
2016,07,30,09,24,24.60
2016,07,30,09,25,17.50
2016,07,30,09,26,18.80
2016,07,30,09,27,17.90
2016,07,30,09,28,20.60
2016,07,30,09,29,20.50
2016,07,30,09,30,22.00
2016,07,30,09,31,15.80
2016,07,30,09,32,21.40
2016,07,30,09,33,18.80
2016,07,30,09,34,20.70
2016,07,30,09,35,21.20
2016,07,30,09,36,20.90
2016,07,30,09,37,20.70
2016,07,30,09,38,19.80
2016,07,30,09,39,17.80
2016,07,30,09,40,17.00
2016,07,30,09,41,19.10
2016,07,30,09,42,18.00
2016,07,30,09,43,16.70
2016,07,30,09,44,20.20
2016,07,30,09,45,22.50
2016,07,30,09,46,18.90
2016,07,30,09,47,20.40
2016,07,30,09,48,20.10
2016,07,30,09,49,20.90
2016,07,30,09,50,21.40
2016,07,30,09,51,23.80
2016,07,30,09,52,22.80
2016,07,30,09,53,21.40
2016,07,30,09,54,22.10
2016,07,30,09,55,23.40
2016,07,30,09,56,20.50
2016,07,30,09,57,20.90
2016,07,30,09,58,19.30
2016,07,30,09,59,20.40
2016,07,30,10,00,20.80
2016,07,30,10,01,17.90
2016,07,30,10,02,18.10
2016,07,30,10,03,20.90
2016,07,30,10,04,20.70
2016,07,30,10,05,14.30
2016,07,30,10,06,14.50
2016,07,30,10,07,16.60
2016,07,30,10,08,14.40
2016,07,30,10,09,14.70
2016,07,30,10,10,15.70
2016,07,30,10,11,13.40
2016,07,30,10,12,14.60
2016,07,30,10,13,16.10
2016,07,30,10,14,21.00
2016,07,30,10,15,18.70
2016,07,30,10,16,18.20
2016,07,30,10,17,22.60
2016,07,30,10,18,18.10
2016,07,30,10,19,15.00
2016,07,30,10,20,13.40
2016,07,30,10,21,16.80
2016,07,30,10,22,22.70
2016,07,30,10,23,15.20
2016,07,30,10,24,16.20
2016,07,30,10,25,18.40
2016,07,30,10,26,22.80
2016,07,30,10,27,19.90
2016,07,30,10,28,24.00
2016,07,30,10,29,26.50
2016,07,30,10,30,13.20
2016,07,30,10,31,18.10
2016,07,30,10,32,17.10
2016,07,30,10,33,21.20
2016,07,30,10,34,12.40
2016,07,30,10,35,23.00
2016,07,30,10,36,22.30
2016,07,30,10,37,23.10
2016,07,30,10,38,24.90
2016,07,30,10,39,26.00
2016,07,30,10,40,22.00
2016,07,30,10,41,18.40
2016,07,30,10,42,20.00
2016,07,30,10,43,16.70
2016,07,30,10,44,13.20
2016,07,30,10,45,19.60
2016,07,30,10,46,16.90
2016,07,30,10,47,17.30
2016,07,30,10,48,15.80
2016,07,30,10,49,22.10
2016,07,30,10,50,21.50
2016,07,30,10,51,24.90
2016,07,30,10,52,23.20
2016,07,30,10,53,21.40
2016,07,30,10,54,20.00
2016,07,30,10,55,24.90
2016,07,30,10,56,16.40
2016,07,30,10,57,20.00
2016,07,30,10,58,16.60
2016,07,30,10,59,18.40
2016,07,30,11,00,17.10
2016,07,30,11,01,19.70
2016,07,30,11,02,25.60
2016,07,30,11,03,23.00
2016,07,30,11,04,17.80
2016,07,30,11,05,21.20
2016,07,30,11,06,18.90
2016,07,30,11,07,21.90
2016,07,30,11,08,20.50
2016,07,30,11,09,19.00
2016,07,30,11,10,18.10
2016,07,30,11,11,24.30
2016,07,30,11,12,19.30
2016,07,30,11,13,22.60
2016,07,30,11,14,20.10
2016,07,30,11,15,18.50
2016,07,30,11,16,21.30
2016,07,30,11,17,22.90
2016,07,30,11,18,22.60
2016,07,30,11,19,25.90
2016,07,30,11,20,26.10
2016,07,30,11,21,19.30
2016,07,30,11,22,19.10
2016,07,30,11,23,16.80
2016,07,30,11,24,21.50
2016,07,30,11,25,27.80
2016,07,30,11,26,21.00
2016,07,30,11,27,13.10
2016,07,30,11,28,14.70
2016,07,30,11,29,19.90
2016,07,30,11,30,23.60
2016,07,30,11,31,14.70
2016,07,30,11,32,15.30
2016,07,30,11,33,22.90
2016,07,30,11,34,25.60
2016,07,30,11,35,19.80
2016,07,30,11,36,16.80
2016,07,30,11,37,21.30
2016,07,30,11,38,19.30
2016,07,30,11,39,21.50
2016,07,30,11,40,20.40
2016,07,30,11,41,21.20
2016,07,30,11,42,20.00
2016,07,30,11,43,18.40
2016,07,30,11,44,17.50
2016,07,30,11,45,16.80
2016,07,30,11,46,23.60
2016,07,30,11,47,17.20
2016,07,30,11,48,24.00
2016,07,30,11,49,18.40
2016,07,30,11,50,23.50
2016,07,30,11,51,22.20
2016,07,30,11,52,21.80
2016,07,30,11,53,25.10
2016,07,30,11,54,18.20
2016,07,30,11,55,22.60
2016,07,30,11,56,19.80
2016,07,30,11,57,21.90
2016,07,30,11,58,18.90
2016,07,30,11,59,20.10
2016,07,30,12,00,17.50
2016,07,30,12,01,23.10
2016,07,30,12,02,20.10
2016,07,30,12,03,16.40
2016,07,30,12,04,19.70
2016,07,30,12,05,25.40
2016,07,30,12,06,19.20
2016,07,30,12,07,19.40
2016,07,30,12,08,15.30
2016,07,30,12,09,20.30
2016,07,30,12,10,20.20
2016,07,30,12,11,19.50
2016,07,30,12,12,16.80
2016,07,30,12,13,17.10
2016,07,30,12,14,30.50
2016,07,30,12,15,25.00
2016,07,30,12,16,23.80
2016,07,30,12,17,20.00
2016,07,30,12,18,22.10
2016,07,30,12,19,21.70
2016,07,30,12,20,19.40
2016,07,30,12,21,15.00
2016,07,30,12,22,15.00
2016,07,30,12,23,19.90
2016,07,30,12,24,12.90
2016,07,30,12,25,16.30
2016,07,30,12,26,19.00
2016,07,30,12,27,17.20
2016,07,30,12,28,21.00
2016,07,30,12,29,20.70
2016,07,30,12,30,20.00
2016,07,30,12,31,16.10
2016,07,30,12,32,18.80
2016,07,30,12,33,24.60
2016,07,30,12,34,18.40
2016,07,30,12,35,20.30
2016,07,30,12,36,23.10
2016,07,30,12,37,21.80
2016,07,30,12,38,20.00
2016,07,30,12,39,14.10
2016,07,30,12,40,22.40
2016,07,30,12,41,18.50
2016,07,30,12,42,21.50
2016,07,30,12,43,21.40
2016,07,30,12,44,16.70
2016,07,30,12,45,17.20
2016,07,30,12,46,22.80
2016,07,30,12,47,24.10
2016,07,30,12,48,23.50
2016,07,30,12,49,22.20
2016,07,30,12,50,18.50
2016,07,30,12,51,16.80
2016,07,30,12,52,25.30
2016,07,30,12,53,27.30
2016,07,30,12,54,20.60
2016,07,30,12,55,18.40
2016,07,30,12,56,16.70
2016,07,30,12,57,14.90
2016,07,30,12,58,21.60
2016,07,30,12,59,21.70
2016,07,30,13,00,17.30
2016,07,30,13,01,21.50
2016,07,30,13,02,18.50
2016,07,30,13,03,18.80
2016,07,30,13,04,17.00
2016,07,30,13,05,16.90
2016,07,30,13,06,17.30
2016,07,30,13,07,21.00
2016,07,30,13,08,21.50
2016,07,30,13,09,19.40
2016,07,30,13,10,15.70
2016,07,30,13,11,21.20
2016,07,30,13,12,25.00
2016,07,30,13,13,18.90
2016,07,30,13,14,17.60
2016,07,30,13,15,19.30
2016,07,30,13,16,15.00
2016,07,30,13,17,24.00
2016,07,30,13,18,20.10
2016,07,30,13,19,21.30
2016,07,30,13,20,23.10
2016,07,30,13,21,29.10
2016,07,30,13,22,22.10
2016,07,30,13,23,18.80
2016,07,30,13,24,17.40
2016,07,30,13,25,23.10
2016,07,30,13,26,25.20
2016,07,30,13,27,25.20
2016,07,30,13,28,18.10
2016,07,30,13,29,21.50
2016,07,30,13,30,22.00
2016,07,30,13,31,18.40
2016,07,30,13,32,18.10
2016,07,30,13,33,13.10
2016,07,30,13,34,22.20
2016,07,30,13,35,26.10
2016,07,30,13,36,19.00
2016,07,30,13,37,17.00
2016,07,30,13,38,22.80
2016,07,30,13,39,20.90
2016,07,30,13,40,14.70
2016,07,30,13,41,22.50
2016,07,30,13,42,17.50
2016,07,30,13,43,16.50
2016,07,30,13,44,17.40
2016,07,30,13,45,17.80
2016,07,30,13,46,22.00
2016,07,30,13,47,18.40
2016,07,30,13,48,14.40
2016,07,30,13,49,17.60
2016,07,30,13,50,21.30
2016,07,30,13,51,19.10
2016,07,30,13,52,27.10
2016,07,30,13,53,23.00
2016,07,30,13,54,24.00
2016,07,30,13,55,22.30
2016,07,30,13,56,18.70
2016,07,30,13,57,20.80
2016,07,30,13,58,17.00
2016,07,30,13,59,16.00
2016,07,30,14,00,23.10
2016,07,30,14,01,15.70
2016,07,30,14,02,19.00
2016,07,30,14,03,20.80
2016,07,30,14,04,22.10
2016,07,30,14,05,24.00
2016,07,30,14,06,22.40
2016,07,30,14,07,17.60
2016,07,30,14,08,22.80
2016,07,30,14,09,25.50
2016,07,30,14,10,21.80
2016,07,30,14,11,24.20
2016,07,30,14,12,18.40
2016,07,30,14,13,23.60
2016,07,30,14,14,35.10
2016,07,30,14,15,27.20
2016,07,30,14,16,19.10
2016,07,30,14,17,17.00
2016,07,30,14,18,25.10
2016,07,30,14,19,24.60
2016,07,30,14,20,27.40
2016,07,30,14,21,24.10
2016,07,30,14,22,18.40
2016,07,30,14,23,24.30
2016,07,30,14,24,21.00
2016,07,30,14,25,20.70
2016,07,30,14,26,16.30
2016,07,30,14,27,22.80
2016,07,30,14,28,25.20
2016,07,30,14,29,22.90
2016,07,30,14,30,25.30
2016,07,30,14,31,18.80
2016,07,30,14,32,21.30
2016,07,30,14,33,16.70
2016,07,30,14,34,18.10
2016,07,30,14,35,22.30
2016,07,30,14,36,28.00
2016,07,30,14,37,27.20
2016,07,30,14,38,22.00
2016,07,30,14,39,20.60
2016,07,30,14,40,22.70
2016,07,30,14,41,26.70
2016,07,30,14,42,23.10
2016,07,30,14,43,17.30
2016,07,30,14,44,21.20
2016,07,30,14,45,22.50
2016,07,30,14,46,17.70
2016,07,30,14,47,20.00
2016,07,30,14,48,22.20
2016,07,30,14,49,21.20
2016,07,30,14,50,16.80
2016,07,30,14,51,16.00
2016,07,30,14,52,20.10
2016,07,30,14,53,14.90
2016,07,30,14,54,18.20
2016,07,30,14,55,18.40
2016,07,30,14,56,17.70
2016,07,30,14,57,15.10
2016,07,30,14,58,15.40
2016,07,30,14,59,19.80
2016,07,30,15,00,16.60
2016,07,30,15,01,17.20
2016,07,30,15,02,18.90
2016,07,30,15,03,17.30
2016,07,30,15,04,18.10
2016,07,30,15,05,17.30
2016,07,30,15,06,21.90
2016,07,30,15,07,22.20
2016,07,30,15,08,20.00
2016,07,30,15,09,18.10
2016,07,30,15,10,16.20
2016,07,30,15,11,20.30
2016,07,30,15,12,23.80
2016,07,30,15,13,13.90
2016,07,30,15,14,21.20
2016,07,30,15,15,23.00
2016,07,30,15,16,18.50
2016,07,30,15,17,21.30
2016,07,30,15,18,19.80
2016,07,30,15,19,20.90
2016,07,30,15,20,19.60
2016,07,30,15,21,20.60
2016,07,30,15,22,20.90
2016,07,30,15,23,17.30
2016,07,30,15,24,17.80
2016,07,30,15,25,20.10
2016,07,30,15,26,17.50
2016,07,30,15,27,20.70
2016,07,30,15,28,19.30
2016,07,30,15,29,17.00
2016,07,30,15,30,19.70
2016,07,30,15,31,18.10
2016,07,30,15,32,16.90
2016,07,30,15,33,16.30
2016,07,30,15,34,14.70
2016,07,30,15,35,18.20
2016,07,30,15,36,16.80
2016,07,30,15,37,20.60
2016,07,30,15,38,23.50
2016,07,30,15,39,17.80
2016,07,30,15,40,16.30
2016,07,30,15,41,14.00
2016,07,30,15,42,17.50
2016,07,30,15,43,16.60
2016,07,30,15,44,13.10
2016,07,30,15,45,22.80
2016,07,30,15,46,19.70
2016,07,30,15,47,17.20
2016,07,30,15,48,20.30
2016,07,30,15,49,19.30
2016,07,30,15,50,13.20
2016,07,30,15,51,19.50
2016,07,30,15,52,14.60
2016,07,30,15,53,21.20
2016,07,30,15,54,17.70
2016,07,30,15,55,22.30
2016,07,30,15,56,22.50
2016,07,30,15,57,15.60
2016,07,30,15,58,23.10
2016,07,30,15,59,23.00
2016,07,30,16,00,19.70
2016,07,30,16,01,23.20
2016,07,30,16,02,18.50
2016,07,30,16,03,26.10
2016,07,30,16,04,16.10
2016,07,30,16,05,19.40
2016,07,30,16,06,17.30
2016,07,30,16,07,15.50
2016,07,30,16,08,18.00
2016,07,30,16,09,20.20
2016,07,30,16,10,18.90
2016,07,30,16,11,18.80
2016,07,30,16,12,18.90
2016,07,30,16,13,20.10
2016,07,30,16,14,18.90
2016,07,30,16,15,18.50
2016,07,30,16,16,22.10
2016,07,30,16,17,23.10
2016,07,30,16,18,22.10
2016,07,30,16,19,17.30
2016,07,30,16,20,16.00
2016,07,30,16,21,17.60
2016,07,30,16,22,18.40
2016,07,30,16,23,21.20
2016,07,30,16,24,20.70
2016,07,30,16,25,15.00
2016,07,30,16,26,17.50
2016,07,30,16,27,15.10
2016,07,30,16,28,19.00
2016,07,30,16,29,22.40
2016,07,30,16,30,18.70
2016,07,30,16,31,22.20
2016,07,30,16,32,25.50
2016,07,30,16,33,22.20
2016,07,30,16,34,15.90
2016,07,30,16,35,19.40
2016,07,30,16,36,13.20
2016,07,30,16,37,13.40
2016,07,30,16,38,24.60
2016,07,30,16,39,21.80
2016,07,30,16,40,17.10
2016,07,30,16,41,23.50
2016,07,30,16,42,17.60
2016,07,30,16,43,20.40
2016,07,30,16,44,20.20
2016,07,30,16,45,16.70
2016,07,30,16,46,23.70
2016,07,30,16,47,23.60
2016,07,30,16,48,24.00
2016,07,30,16,49,17.30
2016,07,30,16,50,19.40
2016,07,30,16,51,21.80
2016,07,30,16,52,19.70
2016,07,30,16,53,16.60
2016,07,30,16,54,21.70
2016,07,30,16,55,15.20
2016,07,30,16,56,17.90
2016,07,30,16,57,22.40
2016,07,30,16,58,17.10
2016,07,30,16,59,12.90
2016,07,30,17,00,19.70
2016,07,30,17,01,19.70
2016,07,30,17,02,12.20
2016,07,30,17,03,14.40
2016,07,30,17,04,13.60
2016,07,30,17,05,17.10
2016,07,30,17,06,25.90
2016,07,30,17,07,14.10
2016,07,30,17,08,17.10
2016,07,30,17,09,22.90
2016,07,30,17,10,23.70
2016,07,30,17,11,20.60
2016,07,30,17,12,22.10
2016,07,30,17,13,23.30
2016,07,30,17,14,16.90
2016,07,30,17,15,22.20
2016,07,30,17,16,13.70
2016,07,30,17,17,22.00
2016,07,30,17,18,20.00
2016,07,30,17,19,19.80
2016,07,30,17,20,21.50
2016,07,30,17,21,18.30
2016,07,30,17,22,17.40
2016,07,30,17,23,20.70
2016,07,30,17,24,23.50
2016,07,30,17,25,19.40
2016,07,30,17,26,21.30
2016,07,30,17,27,18.10
2016,07,30,17,28,22.60
2016,07,30,17,29,18.90
2016,07,30,17,30,21.20
2016,07,30,17,31,20.40
2016,07,30,17,32,19.60